This demonstration page uses our WeatherBlox Daily Observations layout. Learn more.

39.29038, -76.61219

Hourly Observations for November 3, 2019

Temp ( °F °C ) Dew Point ( °F °C ) Humidity (%) Winds ( mph kmh ) Pressure ( in mb ) Visibility ( mi km ) Precip ( " mm )
12:54 am 00:54 undefined 44 6.7 32 0 63 63 undefined N/A 30.1 1019 N/A 0 0
1:54 am 01:54 undefined 44 6.7 31 -0.6 60 60 undefined N/A 30.1 1019 N/A 0 0
1:54 am 01:54 undefined 44 6.7 29 -1.7 55 55 undefined N/A 30.11 1020 N/A 0 0
2:54 am 02:54 undefined 46 7.8 28 -2.2 50 50 undefined N/A 30.11 1020 N/A 0 0
3:54 am 03:54 undefined 43 6.1 28 -2.2 56 56 undefined N/A 30.1 1019 N/A 0 0
4:54 am 04:54 undefined 42 5.6 30 -1.1 62 62 undefined N/A 30.12 1020 N/A 0 0
5:54 am 05:54 undefined 42 5.6 29 -1.7 60 60 undefined N/A 30.13 1020 N/A 0 0
6:54 am 06:54 undefined 41 5 30 -1.1 65 65 undefined N/A 30.16 1021 N/A 0 0
7:54 am 07:54 undefined 45 7.2 30 -1.1 56 56 undefined N/A 30.22 1023 N/A 0 0
8:54 am 08:54 undefined 49 9.4 28 -2.2 44 44 undefined N/A 30.26 1025 N/A 0 0
9:54 am 09:54 undefined 50 10 27 -2.8 41 41 undefined N/A 30.24 1024 N/A 0 0
10:54 am 10:54 undefined 52 11.1 28 -2.2 40 40 undefined N/A 30.24 1024 N/A 0 0
11:54 am 11:54 undefined 52 11.1 27 -2.8 38 38 undefined N/A 30.21 1023 N/A 0 0
12:54 pm 12:54 undefined 53 11.7 27 -2.8 37 37 undefined N/A 30.19 1022 N/A 0 0
1:54 pm 13:54 undefined 54 12.2 26 -3.3 34 34 undefined N/A 30.18 1022 N/A 0 0
2:54 pm 14:54 undefined 53 11.7 25 -3.9 34 34 undefined N/A 30.14 1021 N/A 0 0
3:54 pm 15:54 undefined 53 11.7 24 -4.4 32 32 undefined N/A 30.18 1022 N/A 0 0
4:54 pm 16:54 undefined 52 11.1 24 -4.4 34 34 undefined N/A 30.2 1023 N/A 0 0
5:54 pm 17:54 undefined 51 10.6 25 -3.9 36 36 undefined N/A 30.21 1023 N/A 0 0
6:54 pm 18:54 undefined 51 10.6 24 -4.4 35 35 undefined N/A 30.23 1024 N/A 0 0
7:54 pm 19:54 undefined 48 8.9 30 -1.1 50 50 undefined N/A 30.24 1024 N/A 0 0
8:54 pm 20:54 undefined 46 7.8 30 -1.1 54 54 undefined N/A 30.25 1025 N/A 0 0
9:54 pm 21:54 undefined 45 7.2 33 0.6 63 63 undefined N/A 30.27 1025 N/A 0 0
10:54 pm 22:54 undefined 43 6.1 32 0 65 65 undefined N/A 30.27 1025 N/A 0 0
11:54 pm 23:54 undefined 43 6.1 32 0 65 65 undefined N/A 30.28 1025 N/A 0 0

Powered by AerisWeather